MAN Lake Manapouri storage,,
From www.emi.ea.govt.nz provided by the Electricity Authority (New Zealand)

Date,Time,Lake level (m),Active storage (Mm�),Active contingent storage (Mm�),QC
1980-01-01,24:00:00,178.631,384.398,.000,320
1980-01-02,24:00:00,178.554,373.734,.000,320
1980-01-03,24:00:00,178.465,361.322,.000,320
1980-01-04,24:00:00,178.330,342.446,.000,320
1980-01-05,24:00:00,178.197,323.942,.000,320
1980-01-06,24:00:00,178.123,313.612,.000,320
1980-01-07,24:00:00,178.099,310.363,.000,320
1980-01-08,24:00:00,178.081,307.783,.000,320
1980-01-09,24:00:00,178.046,302.972,.000,320
1980-01-10,24:00:00,178.000,296.533,.000,320
1980-01-11,24:00:00,177.962,291.251,.000,320
1980-01-12,24:00:00,177.964,291.449,.000,320
1980-01-13,24:00:00,177.951,289.640,.000,320
1980-01-14,24:00:00,177.892,281.478,.000,320
1980-01-15,24:00:00,177.853,276.104,.000,320
1980-01-16,24:00:00,177.826,272.221,.000,320
1980-01-17,24:00:00,177.907,283.602,.000,320
1980-01-18,24:00:00,177.928,286.542,.000,320
1980-01-19,24:00:00,178.057,304.502,.000,320
1980-01-20,24:00:00,178.246,330.859,.000,320
1980-01-21,24:00:00,178.448,358.912,.000,320
1980-01-22,24:00:00,178.501,366.297,.000,320
1980-01-23,24:00:00,178.493,365.228,.000,320
1980-01-24,24:00:00,178.520,368.977,.000,320
1980-01-25,24:00:00,178.601,380.303,.000,320
1980-01-26,24:00:00,178.698,393.827,.000,320
1980-01-27,24:00:00,179.255,471.436,.000,320
1980-01-28,24:00:00,179.489,504.008,.000,320
1980-01-29,24:00:00,179.498,505.316,.000,320
1980-01-30,24:00:00,179.446,498.054,.000,320
1980-01-31,24:00:00,179.394,490.724,.000,320
1980-02-01,24:00:00,179.442,497.458,.000,320
1980-02-02,24:00:00,179.484,503.264,.000,320
1980-02-03,24:00:00,179.503,506.011,.000,320
1980-02-04,24:00:00,179.664,528.341,.000,320
1980-02-05,24:00:00,179.688,531.686,.000,320
1980-02-06,24:00:00,179.651,526.532,.000,320
1980-02-07,24:00:00,179.628,523.337,.000,320
1980-02-08,24:00:00,179.615,521.609,.000,320
1980-02-09,24:00:00,179.568,515.062,.000,320
1980-02-10,24:00:00,179.629,523.468,.000,320
1980-02-11,24:00:00,179.607,520.416,.000,320
1980-02-12,24:00:00,179.518,508.106,.000,320
1980-02-13,24:00:00,179.408,492.769,.000,320
1980-02-14,24:00:00,179.282,475.222,.000,320
1980-02-15,24:00:00,179.153,457.166,.000,320
1980-02-16,24:00:00,179.036,440.859,.000,320
1980-02-17,24:00:00,178.938,427.169,.000,320
1980-02-18,24:00:00,178.801,408.110,.000,320
1980-02-19,24:00:00,178.668,389.659,.000,320
1980-02-20,24:00:00,178.594,379.349,.000,320
1980-02-21,24:00:00,178.606,380.943,.000,320
1980-02-22,24:00:00,178.500,366.180,.000,320
1980-02-23,24:00:00,178.385,350.172,.000,320
1980-02-24,24:00:00,178.276,335.031,.000,320
1980-02-25,24:00:00,178.160,318.845,.000,320
1980-02-26,24:00:00,178.217,326.697,.000,320
1980-02-27,24:00:00,178.252,331.567,.000,320
1980-02-28,24:00:00,178.231,328.756,.000,320
1980-02-29,24:00:00,178.167,319.831,.000,320
1980-03-01,24:00:00,178.098,310.106,.000,320
1980-03-02,24:00:00,178.061,304.978,.000,320
1980-03-03,24:00:00,178.002,296.749,.000,320
1980-03-04,24:00:00,177.909,283.891,.000,320
1980-03-05,24:00:00,177.842,274.482,.000,320
1980-03-06,24:00:00,177.793,267.625,.000,320
1980-03-07,24:00:00,177.728,258.641,.000,320
1980-03-08,24:00:00,177.670,250.498,.000,320
1980-03-09,24:00:00,177.655,248.512,.000,320
1980-03-10,24:00:00,177.684,252.489,.000,320
1980-03-11,24:00:00,177.730,258.854,.000,320
1980-03-12,24:00:00,177.705,255.458,.000,320
1980-03-13,24:00:00,177.678,251.685,.000,320
1980-03-14,24:00:00,177.658,248.805,.000,320
1980-03-15,24:00:00,177.667,250.094,.000,320
1980-03-16,24:00:00,177.822,271.713,.000,320
1980-03-17,24:00:00,178.080,307.618,.000,320
1980-03-18,24:00:00,178.168,319.969,.000,320
1980-03-19,24:00:00,178.204,324.944,.000,320
1980-03-20,24:00:00,178.212,326.098,.000,320
1980-03-21,24:00:00,178.182,321.845,.000,320
1980-03-22,24:00:00,178.146,316.910,.000,320
1980-03-23,24:00:00,178.155,318.158,.000,320
1980-03-24,24:00:00,178.115,312.556,.000,320
1980-03-25,24:00:00,178.085,308.375,.000,320
1980-03-26,24:00:00,178.018,298.999,.000,320
1980-03-27,24:00:00,177.921,285.559,.000,320
1980-03-28,24:00:00,177.838,273.947,.000,320
1980-03-29,24:00:00,177.726,258.300,.000,320
1980-03-30,24:00:00,177.712,256.355,.000,320
1980-03-31,24:00:00,177.878,279.550,.000,320
1980-04-01,24:00:00,177.861,277.198,.000,320
1980-04-02,24:00:00,177.824,271.940,.000,320
1980-04-03,24:00:00,177.781,266.039,.000,320
1980-04-04,24:00:00,177.724,258.015,.000,320
1980-04-05,24:00:00,177.699,254.642,.000,320
1980-04-06,24:00:00,177.719,257.387,.000,320
1980-04-07,24:00:00,177.752,261.944,.000,320
1980-04-08,24:00:00,177.788,267.028,.000,320
1980-04-09,24:00:00,177.800,268.648,.000,320
1980-04-10,24:00:00,177.799,268.545,.000,320
1980-04-11,24:00:00,177.801,268.824,.000,320
1980-04-12,24:00:00,177.787,266.818,.000,320
1980-04-13,24:00:00,177.776,265.258,.000,320
1980-04-14,24:00:00,177.768,264.263,.000,320
1980-04-15,24:00:00,177.795,267.965,.000,320
1980-04-16,24:00:00,177.808,269.780,.000,320
1980-04-17,24:00:00,177.809,269.886,.000,320
1980-04-18,24:00:00,177.825,272.193,.000,320
1980-04-19,24:00:00,177.781,265.981,.000,320
1980-04-20,24:00:00,177.726,258.357,.000,320
1980-04-21,24:00:00,177.661,249.230,.000,320
1980-04-22,24:00:00,177.593,239.878,.000,320
1980-04-23,24:00:00,177.520,229.615,.000,320
1980-04-24,24:00:00,177.444,219.024,.000,320
1980-04-25,24:00:00,177.454,220.476,.000,320
1980-04-26,24:00:00,177.414,214.798,.000,320
1980-04-27,24:00:00,177.350,205.899,.000,320
1980-04-28,24:00:00,177.297,198.570,.000,320
1980-04-29,24:00:00,177.317,201.285,.000,320
1980-04-30,24:00:00,177.375,209.409,.000,320
1980-05-01,24:00:00,177.404,213.539,.000,320
1980-05-02,24:00:00,177.413,214.716,.000,320
1980-05-03,24:00:00,177.443,218.869,.000,320
1980-05-04,24:00:00,177.497,226.447,.000,320
1980-05-05,24:00:00,177.517,229.165,.000,320
1980-05-06,24:00:00,177.428,216.829,.000,320
1980-05-07,24:00:00,177.332,203.442,.000,320
1980-05-08,24:00:00,177.225,188.533,.000,320
1980-05-09,24:00:00,177.137,176.312,.000,320
1980-05-10,24:00:00,177.078,168.090,.000,320
1980-05-11,24:00:00,177.041,162.942,.000,320
1980-05-12,24:00:00,176.996,156.636,.000,320
1980-05-13,24:00:00,176.941,148.991,.000,320
1980-05-14,24:00:00,176.897,142.770,.000,320
1980-05-15,24:00:00,176.848,136.015,.000,320
1980-05-16,24:00:00,176.814,131.288,.000,320
1980-05-17,24:00:00,176.766,124.560,.000,320
1980-05-18,24:00:00,176.742,121.187,.000,320
1980-05-19,24:00:00,176.750,122.334,.000,320
1980-05-20,24:00:00,176.816,131.509,.000,320
1980-05-21,24:00:00,177.121,174.024,.000,320
1980-05-22,24:00:00,177.255,192.701,.000,320
1980-05-23,24:00:00,177.454,220.388,.000,320
1980-05-24,24:00:00,178.024,299.875,.000,320
1980-05-25,24:00:00,178.236,329.360,.000,320
1980-05-26,24:00:00,178.186,322.446,.000,320
1980-05-27,24:00:00,178.099,310.263,.000,320
1980-05-28,24:00:00,178.022,299.650,.000,320
1980-05-29,24:00:00,177.969,292.171,.000,320
1980-05-30,24:00:00,177.967,291.963,.000,320
1980-05-31,24:00:00,177.981,293.870,.000,320
1980-06-01,24:00:00,177.986,294.527,.000,320
1980-06-02,24:00:00,177.981,293.862,.000,320
1980-06-03,24:00:00,177.977,293.310,.000,320
1980-06-04,24:00:00,178.009,297.745,.000,320
1980-06-05,24:00:00,178.135,315.370,.000,320
1980-06-06,24:00:00,178.274,334.737,.000,320
1980-06-07,24:00:00,178.258,332.415,.000,320
1980-06-08,24:00:00,178.190,323.054,.000,320
1980-06-09,24:00:00,178.086,308.544,.000,320
1980-06-10,24:00:00,178.037,301.654,.000,320
1980-06-11,24:00:00,178.112,312.169,.000,320
1980-06-12,24:00:00,178.012,298.201,.000,320
1980-06-13,24:00:00,177.921,285.504,.000,320
1980-06-14,24:00:00,177.848,275.406,.000,320
1980-06-15,24:00:00,177.757,262.641,.000,320
1980-06-16,24:00:00,177.665,249.894,.000,320
1980-06-17,24:00:00,177.642,246.593,.000,320
1980-06-18,24:00:00,177.651,247.905,.000,320
1980-06-19,24:00:00,177.653,248.198,.000,320
1980-06-20,24:00:00,177.645,247.027,.000,320
1980-06-21,24:00:00,177.624,244.154,.000,320
1980-06-22,24:00:00,177.603,241.240,.000,320
1980-06-23,24:00:00,177.628,244.617,.000,320
1980-06-24,24:00:00,177.706,255.569,.000,320
1980-06-25,24:00:00,177.758,262.775,.000,320
1980-06-26,24:00:00,177.735,259.589,.000,320
1980-06-27,24:00:00,177.700,254.744,.000,320
1980-06-28,24:00:00,177.659,248.994,.000,320
1980-06-29,24:00:00,177.618,243.234,.000,320
1980-06-30,24:00:00,177.603,241.272,.000,320
1980-07-01,24:00:00,177.573,236.999,.000,320
1980-07-02,24:00:00,177.563,235.608,.000,320
1980-07-03,24:00:00,177.626,244.388,.000,320
1980-07-04,24:00:00,177.690,253.391,.000,320
1980-07-05,24:00:00,177.684,252.543,.000,320
1980-07-06,24:00:00,177.656,248.600,.000,320
1980-07-07,24:00:00,177.621,243.744,.000,320
1980-07-08,24:00:00,177.616,243.041,.000,320
1980-07-09,24:00:00,177.627,244.526,.000,320
1980-07-10,24:00:00,177.618,243.254,.000,320
1980-07-11,24:00:00,177.596,240.282,.000,320
1980-07-12,24:00:00,177.565,235.865,.000,320
1980-07-13,24:00:00,177.532,231.267,.000,320
1980-07-14,24:00:00,177.521,229.811,.000,320
1980-07-15,24:00:00,177.509,228.111,.000,320
1980-07-16,24:00:00,177.503,227.283,.000,320
1980-07-17,24:00:00,177.449,219.796,.000,320
1980-07-18,24:00:00,177.380,210.156,.000,320
1980-07-19,24:00:00,177.315,201.019,.000,320
1980-07-20,24:00:00,177.232,189.575,.000,320
1980-07-21,24:00:00,177.132,175.534,.000,320
1980-07-22,24:00:00,177.044,163.322,.000,320
1980-07-23,24:00:00,176.978,154.052,.000,320
1980-07-24,24:00:00,176.953,150.564,.000,320
1980-07-25,24:00:00,176.926,146.933,.000,320
1980-07-26,24:00:00,176.928,147.206,.000,320
1980-07-27,24:00:00,176.957,151.212,.000,320
1980-07-28,24:00:00,176.978,154.146,.000,320
1980-07-29,24:00:00,176.972,153.211,.000,320
1980-07-30,24:00:00,176.937,148.422,.000,320
1980-07-31,24:00:00,176.887,141.478,.000,320
1980-08-01,24:00:00,176.859,137.498,.000,320
1980-08-02,24:00:00,176.853,136.635,.000,320
1980-08-03,24:00:00,176.885,141.153,.000,320
1980-08-04,24:00:00,176.897,142.884,.000,320
1980-08-05,24:00:00,176.928,147.179,.000,320
1980-08-06,24:00:00,177.019,159.763,.000,320
1980-08-07,24:00:00,177.079,168.136,.000,320
1980-08-08,24:00:00,177.066,166.416,.000,320
1980-08-09,24:00:00,177.077,167.892,.000,320
1980-08-10,24:00:00,177.098,170.818,.000,320
1980-08-11,24:00:00,177.139,176.491,.000,320
1980-08-12,24:00:00,177.451,220.083,.000,320
1980-08-13,24:00:00,177.778,265.570,.000,320
1980-08-14,24:00:00,177.851,275.798,.000,320
1980-08-15,24:00:00,177.934,287.329,.000,320
1980-08-16,24:00:00,178.263,333.131,.000,320
1980-08-17,24:00:00,178.247,331.000,.000,320
1980-08-18,24:00:00,178.139,315.923,.000,320
1980-08-19,24:00:00,178.105,311.142,.000,320
1980-08-20,24:00:00,178.183,322.075,.000,320
1980-08-21,24:00:00,178.226,327.961,.000,320
1980-08-22,24:00:00,178.183,322.027,.000,320
1980-08-23,24:00:00,178.146,316.904,.000,320
1980-08-24,24:00:00,178.130,314.637,.000,320
1980-08-25,24:00:00,178.264,333.343,.000,320
1980-08-26,24:00:00,178.824,411.366,.000,320
1980-08-27,24:00:00,179.029,439.845,.000,320
1980-08-28,24:00:00,179.094,449.025,.000,320
1980-08-29,24:00:00,179.130,453.963,.000,320
1980-08-30,24:00:00,179.335,482.488,.000,320
1980-08-31,24:00:00,179.482,502.989,.000,320
1980-09-01,24:00:00,179.491,504.231,.000,320
1980-09-02,24:00:00,179.577,516.254,.000,320
1980-09-03,24:00:00,179.614,521.374,.000,320
1980-09-04,24:00:00,179.605,520.160,.000,320
1980-09-05,24:00:00,179.549,512.413,.000,320
1980-09-06,24:00:00,179.468,501.039,.000,320
1980-09-07,24:00:00,179.376,488.316,.000,320
1980-09-08,24:00:00,179.275,474.247,.000,320
1980-09-09,24:00:00,179.183,461.349,.000,320
1980-09-10,24:00:00,179.106,450.662,.000,320
1980-09-11,24:00:00,179.079,446.802,.000,320
1980-09-12,24:00:00,179.093,448.775,.000,320
1980-09-13,24:00:00,179.138,455.139,.000,320
1980-09-14,24:00:00,179.111,451.328,.000,320
1980-09-15,24:00:00,179.129,453.869,.000,320
1980-09-16,24:00:00,179.188,462.075,.000,320
1980-09-17,24:00:00,179.229,467.746,.000,320
1980-09-18,24:00:00,179.221,466.595,.000,320
1980-09-19,24:00:00,179.176,460.361,.000,320
1980-09-20,24:00:00,179.164,458.695,.000,320
1980-09-21,24:00:00,179.111,451.383,.000,320
1980-09-22,24:00:00,179.163,458.523,.000,320
1980-09-23,24:00:00,179.294,476.817,.000,320
1980-09-24,24:00:00,179.315,479.743,.000,320
1980-09-25,24:00:00,179.290,476.275,.000,320
1980-09-26,24:00:00,179.461,500.102,.000,320
1980-09-27,24:00:00,179.570,515.219,.000,320
1980-09-28,24:00:00,179.535,510.380,.000,320
1980-09-29,24:00:00,179.561,513.995,.000,320
1980-09-30,24:00:00,179.544,511.692,.000,320
1980-10-01,24:00:00,179.594,518.595,.000,320
1980-10-02,24:00:00,179.609,520.662,.000,320
1980-10-03,24:00:00,179.572,515.506,.000,320
1980-10-04,24:00:00,179.610,520.924,.000,320
1980-10-05,24:00:00,179.524,508.884,.000,320
1980-10-06,24:00:00,179.435,496.445,.000,320
1980-10-07,24:00:00,179.330,481.773,.000,320
1980-10-08,24:00:00,179.237,468.933,.000,320
1980-10-09,24:00:00,179.158,457.879,.000,320
1980-10-10,24:00:00,179.052,443.102,.000,320
1980-10-11,24:00:00,178.929,425.949,.000,320
1980-10-12,24:00:00,178.822,411.010,.000,320
1980-10-13,24:00:00,178.725,397.486,.000,320
1980-10-14,24:00:00,178.639,385.563,.000,320
1980-10-15,24:00:00,178.586,378.126,.000,320
1980-10-16,24:00:00,178.546,372.530,.000,320
1980-10-17,24:00:00,178.486,364.174,.000,320
1980-10-18,24:00:00,178.406,353.039,.000,320
1980-10-19,24:00:00,178.313,340.079,.000,320
1980-10-20,24:00:00,178.221,327.316,.000,320
1980-10-21,24:00:00,178.124,313.741,.000,320
1980-10-22,24:00:00,178.043,302.495,.000,320
1980-10-23,24:00:00,177.974,292.843,.000,320
1980-10-24,24:00:00,177.894,281.686,.000,320
1980-10-25,24:00:00,177.840,274.254,.000,320
1980-10-26,24:00:00,177.814,270.547,.000,320
1980-10-27,24:00:00,177.786,266.716,.000,320
1980-10-28,24:00:00,177.819,271.258,.000,320
1980-10-29,24:00:00,177.953,289.948,.000,320
1980-10-30,24:00:00,178.076,307.108,.000,320
1980-10-31,24:00:00,178.171,320.335,.000,320
1980-11-01,24:00:00,178.238,329.728,.000,320
1980-11-02,24:00:00,178.252,331.691,.000,320
1980-11-03,24:00:00,178.282,335.821,.000,320
1980-11-04,24:00:00,178.321,341.233,.000,320
1980-11-05,24:00:00,178.327,342.023,.000,320
1980-11-06,24:00:00,178.281,335.641,.000,320
1980-11-07,24:00:00,178.216,326.676,.000,320
1980-11-08,24:00:00,178.144,316.519,.000,320
1980-11-09,24:00:00,178.054,304.051,.000,320
1980-11-10,24:00:00,177.926,286.230,.000,320
1980-11-11,24:00:00,177.817,271.035,.000,320
1980-11-12,24:00:00,177.787,266.832,.000,320
1980-11-13,24:00:00,177.797,268.264,.000,320
1980-11-14,24:00:00,177.774,265.012,.000,320
1980-11-15,24:00:00,177.798,268.420,.000,320
1980-11-16,24:00:00,177.808,269.753,.000,320
1980-11-17,24:00:00,177.828,272.570,.000,320
1980-11-18,24:00:00,177.865,277.694,.000,320
1980-11-19,24:00:00,177.917,284.936,.000,320
1980-11-20,24:00:00,178.027,300.244,.000,320
1980-11-21,24:00:00,178.163,319.165,.000,320
1980-11-22,24:00:00,178.299,338.221,.000,320
1980-11-23,24:00:00,178.306,339.195,.000,320
1980-11-24,24:00:00,178.242,330.278,.000,320
1980-11-25,24:00:00,178.233,328.969,.000,320
1980-11-26,24:00:00,178.231,328.769,.000,320
1980-11-27,24:00:00,178.296,337.804,.000,320
1980-11-28,24:00:00,178.584,377.874,.000,320
1980-11-29,24:00:00,178.582,377.633,.000,320
1980-11-30,24:00:00,178.524,369.465,.000,320
1980-12-01,24:00:00,178.458,360.307,.000,320
1980-12-02,24:00:00,178.385,350.230,.000,320
1980-12-03,24:00:00,178.350,345.242,.000,320
1980-12-04,24:00:00,178.339,343.707,.000,320
1980-12-05,24:00:00,178.349,345.135,.000,320
1980-12-06,24:00:00,178.358,346.377,.000,320
1980-12-07,24:00:00,178.372,348.407,.000,320
1980-12-08,24:00:00,178.333,342.933,.000,320
1980-12-09,24:00:00,178.252,331.633,.000,320
1980-12-10,24:00:00,178.203,324.794,.000,320
1980-12-11,24:00:00,178.132,314.954,.000,320
1980-12-12,24:00:00,178.077,307.253,.000,320
1980-12-13,24:00:00,178.066,305.648,.000,320
1980-12-14,24:00:00,178.044,302.657,.000,320
1980-12-15,24:00:00,178.061,305.029,.000,320
1980-12-16,24:00:00,178.130,314.649,.000,320
1980-12-17,24:00:00,178.147,316.959,.000,320
1980-12-18,24:00:00,178.145,316.790,.000,320
1980-12-19,24:00:00,178.202,324.651,.000,320
1980-12-20,24:00:00,178.240,330.011,.000,320
1980-12-21,24:00:00,178.220,327.201,.000,320
1980-12-22,24:00:00,178.176,321.019,.000,320
1980-12-23,24:00:00,178.087,308.613,.000,320
1980-12-24,24:00:00,178.028,300.385,.000,320
1980-12-25,24:00:00,177.988,294.854,.000,320
1980-12-26,24:00:00,178.000,296.514,.000,320
1980-12-27,24:00:00,178.016,298.751,.000,320
1980-12-28,24:00:00,178.026,300.148,.000,320
1980-12-29,24:00:00,178.042,302.364,.000,320
1980-12-30,24:00:00,178.053,303.890,.000,320
1980-12-31,24:00:00,178.064,305.470,.000,320
1981-01-01,24:00:00,178.075,306.917,.000,320
1981-01-02,24:00:00,178.091,309.157,.000,320
1981-01-03,24:00:00,178.112,312.174,.000,320
1981-01-04,24:00:00,178.146,316.843,.000,320
1981-01-05,24:00:00,178.296,337.774,.000,320
1981-01-06,24:00:00,178.321,341.267,.000,320
1981-01-07,24:00:00,178.306,339.153,.000,320
1981-01-08,24:00:00,178.272,334.363,.000,320
1981-01-09,24:00:00,178.220,327.129,.000,320
1981-01-10,24:00:00,178.189,322.855,.000,320
1981-01-11,24:00:00,178.176,321.107,.000,320
1981-01-12,24:00:00,178.176,320.981,.000,320
1981-01-13,24:00:00,178.095,309.787,.000,320
1981-01-14,24:00:00,178.002,296.740,.000,320
1981-01-15,24:00:00,177.895,281.827,.000,320
1981-01-16,24:00:00,177.797,268.279,.000,320
1981-01-17,24:00:00,177.755,262.327,.000,320
1981-01-18,24:00:00,177.769,264.328,.000,320
1981-01-19,24:00:00,177.790,267.238,.000,320
1981-01-20,24:00:00,177.780,265.822,.000,320
1981-01-21,24:00:00,177.779,265.731,.000,320
1981-01-22,24:00:00,177.774,265.089,.000,320
1981-01-23,24:00:00,177.771,264.567,.000,320
1981-01-24,24:00:00,177.761,263.227,.000,320
1981-01-25,24:00:00,177.736,259.707,.000,320
1981-01-26,24:00:00,177.746,261.118,.000,320
1981-01-27,24:00:00,177.886,280.619,.000,320
1981-01-28,24:00:00,178.143,316.427,.000,320
1981-01-29,24:00:00,178.138,315.749,.000,320
1981-01-30,24:00:00,178.110,311.861,.000,320
1981-01-31,24:00:00,178.088,308.829,.000,320
1981-02-01,24:00:00,178.095,309.826,.000,320
1981-02-02,24:00:00,178.099,310.314,.000,320
1981-02-03,24:00:00,178.103,310.879,.000,320
1981-02-04,24:00:00,178.111,312.006,.000,320
1981-02-05,24:00:00,178.274,334.673,.000,320
1981-02-06,24:00:00,178.390,350.865,.000,320
1981-02-07,24:00:00,178.417,354.626,.000,320
1981-02-08,24:00:00,178.426,355.822,.000,320
1981-02-09,24:00:00,178.422,355.365,.000,320
1981-02-10,24:00:00,178.366,347.484,.000,320
1981-02-11,24:00:00,178.454,359.833,.000,320
1981-02-12,24:00:00,178.363,347.151,.000,320
1981-02-13,24:00:00,178.213,326.167,.000,320
1981-02-14,24:00:00,178.090,309.112,.000,320
1981-02-15,24:00:00,177.998,296.294,.000,320
1981-02-16,24:00:00,177.913,284.458,.000,320
1981-02-17,24:00:00,177.903,283.022,.000,320
1981-02-18,24:00:00,177.873,278.824,.000,320
1981-02-19,24:00:00,177.865,277.674,.000,320
1981-02-20,24:00:00,177.908,283.718,.000,320
1981-02-21,24:00:00,177.907,283.622,.000,320
1981-02-22,24:00:00,177.903,283.056,.000,320
1981-02-23,24:00:00,177.910,284.032,.000,320
1981-02-24,24:00:00,177.890,281.227,.000,320
1981-02-25,24:00:00,177.874,278.955,.000,320
1981-02-26,24:00:00,177.887,280.723,.000,320
1981-02-27,24:00:00,177.945,288.787,.000,320
1981-02-28,24:00:00,177.988,294.849,.000,320
1981-03-01,24:00:00,178.032,300.944,.000,320
1981-03-02,24:00:00,178.065,305.577,.000,320
1981-03-03,24:00:00,178.062,305.194,.000,320
1981-03-04,24:00:00,178.048,303.264,.000,320
1981-03-05,24:00:00,178.051,303.684,.000,320
1981-03-06,24:00:00,178.080,307.652,.000,320
1981-03-07,24:00:00,178.126,314.127,.000,320
1981-03-08,24:00:00,178.184,322.211,.000,320
1981-03-09,24:00:00,178.264,333.300,.000,320
1981-03-10,24:00:00,178.384,349.963,.000,320
1981-03-11,24:00:00,178.468,361.774,.000,320
1981-03-12,24:00:00,178.537,371.320,.000,320
1981-03-13,24:00:00,178.586,378.151,.000,320
1981-03-14,24:00:00,178.589,378.571,.000,320
1981-03-15,24:00:00,178.578,377.070,.000,320
1981-03-16,24:00:00,178.586,378.232,.000,320
1981-03-17,24:00:00,178.569,375.837,.000,320
1981-03-18,24:00:00,178.557,374.084,.000,320
1981-03-19,24:00:00,178.475,362.766,.000,320
1981-03-20,24:00:00,178.399,352.081,.000,320
1981-03-21,24:00:00,178.325,341.813,.000,320
1981-03-22,24:00:00,178.275,334.902,.000,320
1981-03-23,24:00:00,178.184,322.132,.000,320
1981-03-24,24:00:00,178.082,307.981,.000,320
1981-03-25,24:00:00,177.996,295.987,.000,320
1981-03-26,24:00:00,177.956,290.356,.000,320
1981-03-27,24:00:00,177.948,289.236,.000,320
1981-03-28,24:00:00,177.916,284.804,.000,320
1981-03-29,24:00:00,177.886,280.597,.000,320
1981-03-30,24:00:00,177.852,275.924,.000,320
1981-03-31,24:00:00,177.826,272.345,.000,320
1981-04-01,24:00:00,177.854,276.142,.000,320
1981-04-02,24:00:00,177.923,285.739,.000,320
1981-04-03,24:00:00,177.979,293.663,.000,320
1981-04-04,24:00:00,178.006,297.303,.000,320
1981-04-05,24:00:00,178.038,301.789,.000,320
1981-04-06,24:00:00,177.961,291.100,.000,320
1981-04-07,24:00:00,177.859,276.912,.000,320
1981-04-08,24:00:00,177.781,266.057,.000,320
1981-04-09,24:00:00,177.713,256.493,.000,320
1981-04-10,24:00:00,177.702,254.982,.000,320
1981-04-11,24:00:00,177.705,255.439,.000,320
1981-04-12,24:00:00,177.632,245.208,.000,320
1981-04-13,24:00:00,177.600,240.715,.000,320
1981-04-14,24:00:00,177.618,243.272,.000,320
1981-04-15,24:00:00,177.641,246.471,.000,320
1981-04-16,24:00:00,177.663,249.501,.000,320
1981-04-17,24:00:00,177.736,259.786,.000,320
1981-04-18,24:00:00,177.882,280.107,.000,320
1981-04-19,24:00:00,177.887,280.794,.000,320
1981-04-20,24:00:00,177.954,290.145,.000,320
1981-04-21,24:00:00,178.007,297.495,.000,320
1981-04-22,24:00:00,178.016,298.741,.000,320
1981-04-23,24:00:00,178.031,300.890,.000,320
1981-04-24,24:00:00,178.143,316.412,.000,320
1981-04-25,24:00:00,178.018,298.961,.000,320
1981-04-26,24:00:00,178.093,309.462,.000,320
1981-04-27,24:00:00,178.028,300.417,.000,320
1981-04-28,24:00:00,177.923,285.794,.000,320
1981-04-29,24:00:00,177.902,282.813,.000,320
1981-04-30,24:00:00,177.960,290.958,.000,320
1981-05-01,24:00:00,177.960,290.888,.000,320
1981-05-02,24:00:00,177.971,292.542,.000,320
1981-05-03,24:00:00,178.001,296.701,.000,320
1981-05-04,24:00:00,178.027,300.238,.000,320
1981-05-05,24:00:00,178.021,299.506,.000,320
1981-05-06,24:00:00,178.006,297.358,.000,320
1981-05-07,24:00:00,178.002,296.763,.000,320
1981-05-08,24:00:00,178.027,300.262,.000,320
1981-05-09,24:00:00,178.096,309.965,.000,320
1981-05-10,24:00:00,178.109,311.705,.000,320
1981-05-11,24:00:00,178.162,319.040,.000,320
1981-05-12,24:00:00,178.256,332.149,.000,320
1981-05-13,24:00:00,178.208,325.438,.000,320
1981-05-14,24:00:00,178.142,316.317,.000,320
1981-05-15,24:00:00,178.106,311.303,.000,320
1981-05-16,24:00:00,178.039,302.008,.000,320
1981-05-17,24:00:00,178.002,296.848,.000,320
1981-05-18,24:00:00,178.073,306.705,.000,320
1981-05-19,24:00:00,178.041,302.167,.000,320
1981-05-20,24:00:00,177.982,293.970,.000,320
1981-05-21,24:00:00,177.904,283.179,.000,320
1981-05-22,24:00:00,177.819,271.323,.000,320
1981-05-23,24:00:00,177.731,258.993,.000,320
1981-05-24,24:00:00,177.678,251.627,.000,320
1981-05-25,24:00:00,177.656,248.528,.000,320
1981-05-26,24:00:00,177.646,247.252,.000,320
1981-05-27,24:00:00,177.648,247.420,.000,320
1981-05-28,24:00:00,177.662,249.368,.000,320
1981-05-29,24:00:00,177.690,253.268,.000,320
1981-05-30,24:00:00,177.707,255.646,.000,320
1981-05-31,24:00:00,177.729,258.788,.000,320